User: anonymous   Login
Location: Nairn
(57.5833°N, 3.8667°W)
Time: 14:27:17
(UTC+00:00)
Language:

COSMOS 2487 - Orbit

View from above orbital plane
View from above orbital plane
View from above satellite
View from above satellite

Ground track
Ground track

The orbit data is extracted from the following two-line orbital elements,

1 39194U 13032A   20295.69344364  .00004630  00000-0  11017-3 0  9998
2 39194  74.7087 141.6608 0003242 256.2028 103.8824 15.41879685409523
Epoch (UTC): 21 October 2020 16:38:33
Eccentricity: 0.0003242
inclination: 74.7087°
perigee height: 438 km
apogee height: 443 km
right ascension of ascending node: 141.6608°
argument of perigee: 256.2028°
revolutions per day: 15.41879685
mean anomaly at epoch: 103.8824°
orbit number at epoch: 40952

The dashed part of the orbit path shows where the satellite is in the earth's shadow,  

DLR